This is the latest recevied weather packets stored in our database for station/object N8QQQ. If no packets are shown the sender has not sent any weather packets the latest 10 day(s).
| Time | Temp. | Humidity | Pressure | Rain* | Wind** | Luminosity | Snow |
|---|---|---|---|---|---|---|---|
| 1777682050 | 3.33° C | 45% | 1017 hPa | 0 mm | - | 10 W/m² | - |
| 1777681746 | 3.33° C | 45% | 1017.4 hPa | 0 mm | - | 11 W/m² | - |
| 1777681444 | 3.33° C | 44% | 1017.2 hPa | 0 mm | - | 13 W/m² | - |
| 1777681141 | 3.89° C | 42% | 1017.2 hPa | 0 mm | - | 18 W/m² | - |
| 1777680838 | 4.44° C | 43% | 1017.2 hPa | 0 mm | - | 15 W/m² | - |
| 1777680536 | 4.44° C | 43% | 1017.1 hPa | 0 mm | - | 28 W/m² | - |
| 1777680234 | 5° C | 41% | 1016.8 hPa | 0 mm | - | 33 W/m² | - |
| 1777679930 | 5° C | 41% | 1017.1 hPa | 0 mm | - | 38 W/m² | - |
| 1777679625 | 4.44° C | 40% | 1017.2 hPa | 0 mm | - | 48 W/m² | - |
| 1777679321 | 4.44° C | 42% | 1017.1 hPa | 0 mm | - | 58 W/m² | - |
| 1777679018 | 3.89° C | 42% | 1017 hPa | 0 mm | - | 73 W/m² | - |
| 1777678717 | 3.89° C | 45% | 1016.8 hPa | 0 mm | - | 27 W/m² | - |
| 1777678414 | 4.44° C | 45% | 1016.8 hPa | 0 mm | - | 34 W/m² | - |
| 1777678109 | 4.44° C | 45% | 1016.7 hPa | 0 mm | - | 40 W/m² | - |
| 1777677807 | 5° C | 44% | 1016.8 hPa | 0 mm | - | 47 W/m² | - |
| 1777677504 | 5.56° C | 40% | 1016.7 hPa | 0 mm | - | 61 W/m² | - |
| 1777677202 | 5.56° C | 40% | 1016.8 hPa | 0 mm | - | 156 W/m² | - |
| 1777676900 | 5.56° C | 41% | 1016.6 hPa | 0 mm | - | 152 W/m² | - |
| 1777676599 | 5.56° C | 42% | 1016.6 hPa | 0 mm | - | 151 W/m² | - |
| 1777676296 | 6.11° C | 40% | 1016.7 hPa | 0 mm | - | 192 W/m² | - |
| 1777675994 | 5.56° C | 44% | 1016.7 hPa | 0 mm | - | 190 W/m² | - |
| 1777675689 | 5° C | 44% | 1016.8 hPa | 0 mm | - | 194 W/m² | - |
| 1777675387 | 4.44° C | 45% | 1016.7 hPa | 0 mm | - | 91 W/m² | - |
| 1777675083 | 3.89° C | 46% | 1016.8 hPa | 0 mm | - | 92 W/m² | - |
| 1777674779 | 4.44° C | 46% | 1017 hPa | 0 mm | - | 82 W/m² | - |
* Rain latest hour (hover to see other rain measurements)
** Current wind speed in m/s (hover to see current wind gust speed)